Back to catalog

FENGYUN 1C DEB

AliveSSO
NORAD 29950·DEBRIS·🇨🇳 China

Launched May 10, 1999 from Taiyuan Satellite Launch Center

Loading…

Next Passes (next 24 hours)

TLE

FreshSource: Space-Track

Epoch: Sep 14, 2026, 08:33 UTC

1 29950U 99025JY  26257.35668037  .00000046  00000-0  49457-4 0  9993
2 29950  98.7134 285.3291 0033194 179.8629 248.0550 14.10440149 11768

Track FENGYUN 1C DEB in real time with AllMySat

Download on the App Store